Regional Weather Roundup
Issued by NWS

Home | Current Version | Previous Version | Text Only | Print | Product List | Glossary On
Versions: 1 2 3 4 5 6 7 8 9 10 11 12 13 14 15 16 17 18 19 20 21 22 23 24 25 26 27 28 29 30 31 32 33 34 35 36 37 38 39 40 41 42 43 44 45 46 47 48 49 50
112
ASUS43 KBIS 101410
RWRND

NORTH DAKOTA REGIONAL WEATHER ROUNDUP
NATIONAL WEATHER SERVICE BISMARCK ND
800 AM CST SAT DEC 10 2016

NOTE: "FAIR" INDICATES FEW OR NO CLOUDS BELOW 12,000 FEET WITH NO
SIGNIFICANT WEATHER AND/OR OBSTRUCTIONS TO VISIBILITY.


NDZ001>003-009>011-017-101500-
NORTHWEST NORTH DAKOTA

CITY           SKY/WX    TMP DP  RH WIND       PRES   REMARKS
WILLISTON      CLOUDY    -9 -15  75 NE9       30.21F WCI -26
MINOT          CLOUDY   -20 -25  77 CALM      30.30F
MINOT AFB      CLOUDY   -25 -30  77 CALM      30.31F
$$

NDZ018>021-031>035-040>046-101500-
SOUTHWEST NORTH DAKOTA

CITY           SKY/WX    TMP DP  RH WIND       PRES   REMARKS
BISMARCK       CLOUDY   -17 -22  78 NE3       30.33F
DICKINSON      CLOUDY    -6 -11  79 SE12      30.13S WCI -25
GARRISON         N/A    -13 -17  82 E6        30.27F WCI -27
HETTINGER ARPT LGT SNOW  -5  -9  83 SE10      30.13F FOG     WCI -23
$$

NDZ004>008-012>016-024-026-027-054-101500-
NORTHEAST NORTH DAKOTA

CITY           SKY/WX    TMP DP  RH WIND       PRES   REMARKS
GRAND FORKS    CLOUDY    -8 -13  78 CALM      30.49F
GRND FRKS AFB  CLOUDY   -14 -20  74 CALM      30.47F
DEVILS LAKE    CLOUDY   -18 -23  77 CALM      30.38F
$$

NDZ022-023-025-028>030-036>039-047>053-101500-
SOUTHEAST NORTH DAKOTA

CITY           SKY/WX    TMP DP  RH WIND       PRES   REMARKS
FARGO          CLOUDY    -5 -12  72 CALM      30.48F
JAMESTOWN      CLOUDY   -15 -19  82 CALM      30.36F
$$





USA.gov is the U.S. government's official web portal to all federal, state and local government web resources and services.